Covington, KY

2:29 PM EDT on April 25, 2018 (GMT -0400)
Cincinnati-Northern KY International

Weather History for KCVG - April, 2012

Change the Weather History Date:

Thursday, April 12, 2012

  Actual Average Record
Temperature  
Mean Temperature 45 °F 53 °F  
Max Temperature 61 °F 64 °F 87 °F (1930)
Min Temperature 29 °F 43 °F 23 °F (1940)
Degree Days  
Heating Degree Days 20 12  
Month to date heating degree days 148 170  
Since 1 July heating degree days 3795 4663  
Cooling Degree Days 0 0  
Month to date cooling degree days 3 0  
Year to date cooling degree days 36 0  
Moisture  
Dew Point 29 °F    
Average Humidity 60    
Maximum Humidity 92    
Minimum Humidity 27    
Precipitation  
Precipitation 0.00 in 0.13 in 0.83 in (1961)
Month to date precipitation 0.15 1.53  
Year to date precipitation 9.94 11.30  
Snow  
Snow 0.00 in 0.10 in 0.60 in (1959)
Month to date snowfall 0.0 0.4  
Since 1 July snowfall 5.6 22.0  
Snow Depth 0.00 in    
Sea Level Pressure  
Sea Level Pressure 30.23 in    
Wind  
Wind Speed 3 mph (West)    
Max Wind Speed 10 mph    
Max Gust Speed 16 mph    
Visibility 10 miles    
Events      
T = Trace of Precipitation, MM = Missing Value Source: NWS Daily Summary

Daily Weather History Graph

Daily Weather History Graph

Search for Another Location

Airport or City:

Astronomy

Apr. 12, 2012 Rise Set
Actual Time 7:05 AM EDT 8:13 PM EDT
Civil Twilight 6:38 AM EDT 8:41 PM EDT
Nautical Twilight 6:05 AM EDT 9:13 PM EDT
Astronomical Twilight 5:31 AM EDT 9:48 PM EDT
Moon 1:58 AM EDT (4/12) 12:00 PM EDT (4/12)
Length of Visible Light 14h 02m
Length of Day
13h 07m
Waning Gibbous, 59% of the Moon is Illuminated
Apr 12
Waning Gibbous
Apr 13
Last Quarter
Apr 21
New
Apr 29
First Quarter
May 5
Full

Hourly Weather History & Observations

Time (EDT) Temp. Dew Point Humidity Pressure Visibility Wind Dir Wind Speed Gust Speed Precip Events Conditions
12:52 AM 36.0 °F 28.0 °F 73% 30.24 in 10.0 mi Calm Calm - N/A   Clear
1:52 AM 33.1 °F 28.9 °F 85% 30.24 in 10.0 mi Calm Calm - N/A   Clear
2:52 AM 33.1 °F 28.0 °F 82% 30.23 in 10.0 mi Calm Calm - N/A   Clear
3:52 AM 33.1 °F 28.0 °F 82% 30.23 in 10.0 mi Calm Calm - N/A   Clear
4:52 AM 30.9 °F 28.0 °F 89% 30.25 in 10.0 mi Calm Calm - N/A   Clear
5:52 AM 32.0 °F 28.0 °F 85% 30.25 in 10.0 mi Calm Calm - N/A   Clear
6:52 AM 32.0 °F 30.0 °F 92% 30.27 in 8.0 mi Calm Calm - N/A   Partly Cloudy
7:52 AM 30.9 °F 28.9 °F 92% 30.29 in 8.0 mi Calm Calm - N/A   Clear
8:52 AM 41.0 °F 36.0 °F 82% 30.30 in 10.0 mi Calm Calm - N/A   Clear
9:52 AM 50.0 °F 28.0 °F 43% 30.30 in 10.0 mi WNW 8.1 mph - N/A   Clear
10:52 AM 52.0 °F 27.0 °F 38% 30.30 in 10.0 mi West 9.2 mph - N/A   Clear
11:52 AM 53.1 °F 26.1 °F 35% 30.29 in 10.0 mi WSW 5.8 mph - N/A   Partly Cloudy
12:52 PM 55.9 °F 28.0 °F 34% 30.27 in 10.0 mi South 8.1 mph - N/A   Partly Cloudy
1:52 PM 57.9 °F 28.9 °F 33% 30.25 in 10.0 mi Variable 5.8 mph - N/A   Partly Cloudy
2:52 PM 59.0 °F 28.9 °F 32% 30.22 in 10.0 mi SW 3.5 mph - N/A   Partly Cloudy
3:52 PM 59.0 °F 28.9 °F 32% 30.19 in 10.0 mi West 5.8 mph - N/A   Partly Cloudy
4:52 PM 60.1 °F 27.0 °F 28% 30.17 in 10.0 mi SW 6.9 mph - N/A   Partly Cloudy
5:52 PM 60.1 °F 28.0 °F 30% 30.15 in 10.0 mi Calm Calm - N/A   Partly Cloudy
6:52 PM 59.0 °F 30.0 °F 33% 30.14 in 10.0 mi West 4.6 mph - N/A   Partly Cloudy
7:52 PM 54.0 °F 30.9 °F 41% 30.15 in 10.0 mi West 5.8 mph - N/A   Partly Cloudy
8:52 PM 53.1 °F 28.9 °F 40% 30.15 in 10.0 mi NNW 5.8 mph - N/A   Partly Cloudy
9:52 PM 46.9 °F 30.9 °F 54% 30.17 in 10.0 mi Calm Calm - N/A   Partly Cloudy
10:52 PM 45.0 °F 30.9 °F 58% 30.19 in 10.0 mi Calm Calm - N/A   Partly Cloudy
11:52 PM 44.1 °F 28.9 °F 55% 30.19 in 10.0 mi Calm Calm - N/A   Partly Cloudy